This is the latest recevied weather packets stored in our database for station/object K9NZF-2. If no packets are shown the sender has not sent any weather packets the latest 1 day(s).
| Time | Temp. | Humidity | Pressure | Rain* | Wind** | Luminosity | Snow |
|---|---|---|---|---|---|---|---|
| 1778037592 | 7.22° C | 95% | 970.5 hPa | 2.29 mm | - | - | - |
| 1778037534 | 7.22° C | 95% | 970.7 hPa | 2.03 mm | - | - | - |
| 1778037470 | 7.78° C | 95% | 970.9 hPa | 2.03 mm | - | - | - |
| 1778037409 | 7.22° C | 95% | 970.9 hPa | 2.03 mm | - | - | - |
| 1778037347 | 7.22° C | 95% | 970.9 hPa | 2.03 mm | - | - | - |
| 1778037287 | 7.22° C | 95% | 970.8 hPa | 2.03 mm | - | - | - |
| 1778037230 | 7.78° C | 95% | 970.8 hPa | 2.03 mm | - | - | - |
| 1778037165 | 7.78° C | 95% | 970.9 hPa | 2.03 mm | - | - | - |
| 1778037045 | 7.78° C | 95% | 970.8 hPa | 2.03 mm | - | - | - |
| 1778036984 | 7.78° C | 95% | 970.8 hPa | 2.03 mm | - | - | - |
| 1778036923 | 7.78° C | 95% | 970.8 hPa | 2.03 mm | - | - | - |
| 1778036858 | 7.78° C | 95% | 970.7 hPa | 1.78 mm | - | - | - |
| 1778036797 | 7.78° C | 95% | 970.8 hPa | 1.78 mm | - | - | - |
| 1778036492 | 7.78° C | 95% | 971.1 hPa | 1.27 mm | - | - | - |
| 1778036431 | 7.78° C | 95% | 971.1 hPa | 1.27 mm | - | - | - |
| 1778036371 | 7.78° C | 95% | 971.1 hPa | 1.27 mm | - | - | - |
| 1778036310 | 7.78° C | 95% | 971.1 hPa | 1.02 mm | - | - | - |
| 1778036249 | 7.78° C | 95% | 971.1 hPa | 1.02 mm | - | - | - |
| 1778036127 | 7.78° C | 95% | 971.2 hPa | 1.02 mm | - | - | - |
| 1778036005 | 7.78° C | 95% | 971.3 hPa | 1.02 mm | - | - | - |
| 1778035937 | 7.78° C | 95% | 971.4 hPa | 1.02 mm | - | - | - |
| 1778035877 | 7.78° C | 95% | 971.3 hPa | 1.02 mm | - | - | - |
| 1778035817 | 7.78° C | 95% | 971.3 hPa | 1.02 mm | - | - | - |
| 1778035760 | 7.78° C | 95% | 971.4 hPa | 1.02 mm | - | - | - |
| 1778035631 | 7.78° C | 95% | 971.3 hPa | 0.76 mm | - | - | - |
* Rain latest hour (hover to see other rain measurements)
** Current wind speed in m/s (hover to see current wind gust speed)